Погода в Куликове

Россия / Архангельская область     61°42′43″N   46°40′36″E
темп.,
°C
ветер,
м/с
пор.,
м/с
влажн.,
%
обл.,
%
осадки,
мм/ч
давл.,
гПа
погр.,
м
16 мая, вс
вс1600:00+14юв2798100 0.8 1010255
03:00+15юв399892 1.4 1008328
06:00+15ю4119114 0.1 1007447
09:00+20ююз59652 0.1 10081090
12:00+23юз6114068 0.1 10072642
15:00+22ююз5114966 0.1 10072179
18:00+19юз5116799 1.1 10061227
21:00+15юз4118523 2.1 1007643
17 мая, пн
пн1700:00+14юз4119144 0.1 1008640
03:00+13зюз4108874 0.2 1009787
06:00+13зюз4888100 0.1 1011726
09:00+13з4886100 0.1 1013757
12:00+16сз596198 0.0 10151353
15:00+18сз5854100 0.1 10171600
18:00+16с36592 0.0 1018999
21:00+11св248488 0.0 102074
18 мая, вт
вт1800:00+9всв2494100 0.0 102199
03:00+7в2497100 0.0 1022103
06:00+11вюв237954 0.0 1023271
09:00+16вюв2358100 0.0 1022745
12:00+19юв3345100 0.0 10211056
15:00+21ююв3440100 0.0 10201182
18:00+20юв3749100 0.0 1020601
21:00+15юв397190 0.0 1019185
19 мая, ср
ср1900:00+14юв311738 0.0 1019245
03:00+12юв3108015 0.0 1019200
06:00+17ююв4117018 0.2 1018332
09:00+23ю58515 0.2 1017700
12:00+27ю58373 0.0 10161530
15:00+28ю57310 0.0 10162366
18:00+26ююв594496 0.0 10131057
21:00+20юв413665 0.0 1012419
20 мая, чт
чт2000:00+19ююв4147144 0.0 1012544
03:00+16юв38895 0.1 1012213
06:00+18ююв5127893 0.0 1010741
09:00+23ю47535 0.0 10091139
12:00+26ю6134382 0.0 10072641
15:00+22ююв5135267 0.1 10041179
18:00+17юв71692100 27.1 9991217
21:00+12юз51290100 29.4 1003942